TPA67QT LGAV-HKJK

Flight info

Callsign TPA67QT
Flight time 5h 25m
Altitude 37000
Route KEA UL617 MIL UJ56 SUD DCT SALUN L604 MEVDA P557 ALKED/N0462F390 P557 NUBAR P309 AVONO/N0462F400 A727 ANTAX/N0461F390 UA727 KAMAS KAMAS1A
Aircraft A333/H-SDE3GHIJ2J3J5M1RVWXY/LB2D1

Departure

Time 2026-05-07 16:05
Airport Athens Eleftherios Venizelos International Airport (LGAV)

Arrival

Time 2026-05-07 21:30
Airport Jomo Kenyatta International Airport (HKJK)
Time Latitude Longitude Altitude Speed Heading
2026-05-07 15:14 37.92844 23.94233 310 ft 0 kts 217°
2026-05-07 15:31 37.92844 23.94234 305 ft 0 kts 217°
2026-05-07 15:32 37.92844 23.94233 305 ft 0 kts 217°
2026-05-07 15:38 37.92845 23.94234 305 ft 1 kts 217°
2026-05-07 15:38 37.92855 23.94243 307 ft 3 kts 210°
2026-05-07 15:38 37.92873 23.94255 306 ft 3 kts 197°
2026-05-07 15:39 37.92893 23.94260 304 ft 3 kts 184°
2026-05-07 15:39 37.92913 23.94260 306 ft 3 kts 172°
2026-05-07 15:39 37.92932 23.94255 304 ft 3 kts 159°
2026-05-07 15:39 37.92950 23.94244 303 ft 3 kts 140°
2026-05-07 15:40 37.92959 23.94234 306 ft 1 kts 128°
2026-05-07 15:45 37.92959 23.94233 306 ft 0 kts 128°
2026-05-07 15:50 37.92959 23.94234 306 ft 0 kts 127°
2026-05-07 15:50 37.92955 23.94241 308 ft 1 kts 126°
2026-05-07 15:50 37.92948 23.94253 303 ft 2 kts 126°
2026-05-07 15:51 37.92938 23.94270 305 ft 3 kts 127°
2026-05-07 15:51 37.92924 23.94291 307 ft 3 kts 129°
2026-05-07 15:51 37.92907 23.94317 308 ft 4 kts 129°
2026-05-07 15:51 37.92893 23.94348 308 ft 4 kts 115°
2026-05-07 15:52 37.92890 23.94384 307 ft 4 kts 84°
2026-05-07 15:52 37.92903 23.94414 307 ft 4 kts 53°
2026-05-07 15:52 37.92921 23.94438 309 ft 4 kts 44°
2026-05-07 15:52 37.92945 23.94465 308 ft 5 kts 38°
2026-05-07 15:53 37.92973 23.94492 308 ft 6 kts 38°
2026-05-07 15:53 37.93007 23.94526 308 ft 7 kts 38°
2026-05-07 15:53 37.93046 23.94563 309 ft 7 kts 36°
2026-05-07 15:53 37.93089 23.94604 306 ft 8 kts 36°
2026-05-07 15:54 37.93138 23.94649 309 ft 9 kts 36°
2026-05-07 15:54 37.93185 23.94693 305 ft 8 kts 36°
2026-05-07 15:54 37.93231 23.94736 309 ft 9 kts 36°
2026-05-07 15:54 37.93279 23.94783 308 ft 9 kts 38°
2026-05-07 15:55 37.93331 23.94834 308 ft 10 kts 38°
2026-05-07 15:55 37.93382 23.94883 307 ft 1 kts 37°
2026-05-07 15:55 37.93387 23.94887 308 ft 2 kts 37°
2026-05-07 15:55 37.93399 23.94899 308 ft 3 kts 37°
2026-05-07 15:56 37.93417 23.94916 306 ft 4 kts 37°
2026-05-07 15:56 37.93440 23.94938 308 ft 5 kts 37°
2026-05-07 15:56 37.93469 23.94965 307 ft 6 kts 37°
2026-05-07 15:56 37.93503 23.94997 308 ft 7 kts 37°
2026-05-07 15:57 37.93542 23.95034 307 ft 7 kts 37°
2026-05-07 15:57 37.93585 23.95075 308 ft 8 kts 37°
2026-05-07 15:57 37.93634 23.95122 308 ft 9 kts 37°
2026-05-07 15:57 37.93688 23.95173 305 ft 10 kts 37°
2026-05-07 15:58 37.93746 23.95228 306 ft 11 kts 37°
2026-05-07 15:58 37.93809 23.95287 305 ft 12 kts 37°
2026-05-07 15:58 37.93876 23.95350 307 ft 12 kts 37°
2026-05-07 15:58 37.93945 23.95415 306 ft 12 kts 36°
2026-05-07 15:59 37.94014 23.95483 307 ft 13 kts 38°
2026-05-07 15:59 37.94086 23.95554 307 ft 13 kts 38°
2026-05-07 15:59 37.94161 23.95621 307 ft 13 kts 32°
2026-05-07 15:59 37.94227 23.95685 307 ft 12 kts 33°
2026-05-07 16:00 37.94303 23.95755 307 ft 18 kts 38°
2026-05-07 16:00 37.94357 23.95883 305 ft 15 kts 89°
2026-05-07 16:00 37.94397 23.95989 305 ft 13 kts 43°
2026-05-07 16:00 37.94466 23.96054 306 ft 14 kts 37°
2026-05-07 16:01 37.94549 23.96133 307 ft 15 kts 37°
2026-05-07 16:01 37.94635 23.96214 303 ft 15 kts 37°
2026-05-07 16:01 37.94729 23.96303 307 ft 21 kts 36°
2026-05-07 16:01 37.94869 23.96433 309 ft 29 kts 37°
2026-05-07 16:02 37.95048 23.96606 310 ft 36 kts 38°
2026-05-07 16:02 37.95243 23.96791 310 ft 35 kts 37°
2026-05-07 16:02 37.95375 23.96938 309 ft 0 kts 73°
2026-05-07 16:02 37.95376 23.96940 309 ft 1 kts 73°
2026-05-07 16:03 37.95370 23.96985 311 ft 7 kts 114°
2026-05-07 16:03 37.95315 23.97021 313 ft 13 kts 165°
2026-05-07 16:03 37.95184 23.97014 316 ft 30 kts 198°
2026-05-07 16:03 37.95069 23.96921 315 ft 15 kts 233°
2026-05-07 16:04 37.95044 23.96889 315 ft 0 kts 217°
2026-05-07 16:04 37.94982 23.96831 313 ft 38 kts 217°
2026-05-07 16:04 37.94606 23.96467 302 ft 99 kts 217°
2026-05-07 16:04 37.93890 23.95783 283 ft 153 kts 217°
2026-05-07 16:05 37.92955 23.94876 579 ft 180 kts 217°
2026-05-07 16:05 37.91846 23.94120 1396 ft 177 kts 201°
2026-05-07 16:05 37.90707 23.93549 2231 ft 182 kts 204°
2026-05-07 16:05 37.89491 23.92841 2515 ft 207 kts 206°
2026-05-07 16:06 37.88113 23.91941 2788 ft 231 kts 208°
2026-05-07 16:06 37.87164 23.91293 3160 ft 236 kts 209°
2026-05-07 16:06 37.85715 23.90285 3890 ft 238 kts 209°
2026-05-07 16:06 37.84248 23.89253 4580 ft 244 kts 210°
2026-05-07 16:07 37.82748 23.88193 5235 ft 249 kts 210°
2026-05-07 16:07 37.80724 23.86760 6145 ft 255 kts 210°
2026-05-07 16:07 37.79661 23.86027 6562 ft 261 kts 206°
2026-05-07 16:07 37.77915 23.85322 7029 ft 274 kts 189°
2026-05-07 16:08 37.75990 23.85178 7655 ft 280 kts 182°
2026-05-07 16:08 37.74026 23.85291 8354 ft 284 kts 177°
2026-05-07 16:08 37.72047 23.85557 9072 ft 288 kts 174°
2026-05-07 16:08 37.70050 23.85895 9772 ft 292 kts 174°
2026-05-07 16:09 37.68012 23.86258 10309 ft 301 kts 174°
2026-05-07 16:09 37.65874 23.86624 10545 ft 320 kts 174°
2026-05-07 16:09 37.63600 23.86993 10805 ft 338 kts 175°
2026-05-07 16:09 37.61214 23.87363 11172 ft 350 kts 175°
2026-05-07 16:10 37.58774 23.87731 11751 ft 356 kts 175°
2026-05-07 16:10 37.56299 23.88099 12377 ft 360 kts 176°
2026-05-07 16:10 37.53800 23.88468 13006 ft 363 kts 176°
2026-05-07 16:10 37.51278 23.88840 13627 ft 367 kts 176°
2026-05-07 16:11 37.48730 23.89214 14216 ft 371 kts 177°
2026-05-07 16:11 37.46147 23.89594 14765 ft 375 kts 177°
2026-05-07 16:11 37.43541 23.89978 15313 ft 378 kts 177°
2026-05-07 16:11 37.40914 23.90364 15881 ft 382 kts 177°
2026-05-07 16:12 37.38300 23.90749 16415 ft 385 kts 177°
2026-05-07 16:12 37.35622 23.91143 16954 ft 389 kts 177°
2026-05-07 16:12 37.32921 23.91541 17494 ft 393 kts 178°
2026-05-07 16:12 37.30187 23.91943 18034 ft 396 kts 178°
2026-05-07 16:13 37.27425 23.92348 18515 ft 400 kts 178°
2026-05-07 16:13 37.24647 23.92756 18980 ft 404 kts 177°
2026-05-07 16:13 37.21846 23.93167 19431 ft 407 kts 177°
2026-05-07 16:13 37.19020 23.93582 19882 ft 410 kts 177°
2026-05-07 16:14 37.16207 23.93994 20325 ft 413 kts 177°
2026-05-07 16:14 37.13337 23.94414 20761 ft 416 kts 177°
2026-05-07 16:14 37.10449 23.94837 21204 ft 419 kts 177°
2026-05-07 16:14 37.07539 23.95262 21636 ft 422 kts 177°
2026-05-07 16:15 37.04605 23.95690 21976 ft 427 kts 177°
2026-05-07 16:15 37.01627 23.96124 22341 ft 432 kts 177°
2026-05-07 16:15 36.98635 23.96559 22763 ft 435 kts 178°
2026-05-07 16:15 36.95613 23.97000 23162 ft 438 kts 178°
2026-05-07 16:16 36.92572 23.97443 23551 ft 441 kts 178°
2026-05-07 16:16 36.89512 23.97888 23891 ft 444 kts 178°
2026-05-07 16:16 36.86463 23.98331 24207 ft 447 kts 178°
2026-05-07 16:16 36.83364 23.98782 24514 ft 450 kts 178°
2026-05-07 16:17 36.80233 23.99235 24706 ft 456 kts 178°
2026-05-07 16:17 36.77068 23.99692 24999 ft 459 kts 178°
2026-05-07 16:17 36.73881 24.00154 25316 ft 462 kts 178°
2026-05-07 16:17 36.70672 24.00619 25636 ft 464 kts 179°
2026-05-07 16:18 36.67442 24.01086 25946 ft 467 kts 179°
2026-05-07 16:18 36.64201 24.01555 26243 ft 470 kts 179°
2026-05-07 16:18 36.60973 24.02021 26534 ft 473 kts 179°
2026-05-07 16:18 36.57656 24.02499 26818 ft 476 kts 179°
2026-05-07 16:19 36.54352 24.02975 27095 ft 479 kts 179°
2026-05-07 16:19 36.51031 24.03453 27379 ft 482 kts 179°
2026-05-07 16:19 36.47734 24.03927 27658 ft 484 kts 179°
2026-05-07 16:19 36.44374 24.04410 27941 ft 487 kts 180°
2026-05-07 16:20 36.40990 24.04896 28227 ft 490 kts 180°
2026-05-07 16:20 36.37591 24.05383 28498 ft 493 kts 180°
2026-05-07 16:20 36.34179 24.05872 28731 ft 496 kts 180°
2026-05-07 16:20 36.30756 24.06362 28998 ft 499 kts 180°
2026-05-07 16:21 36.27269 24.06861 29279 ft 502 kts 180°
2026-05-07 16:21 36.23838 24.07352 29566 ft 504 kts 180°
2026-05-07 16:21 36.20340 24.07853 29850 ft 506 kts 180°
2026-05-07 16:21 36.16829 24.08354 30122 ft 509 kts 180°
2026-05-07 16:22 36.13293 24.08858 30314 ft 512 kts 180°
2026-05-07 16:22 36.09740 24.09363 30475 ft 516 kts 180°
2026-05-07 16:22 36.06159 24.09872 30694 ft 518 kts 180°
2026-05-07 16:22 36.02559 24.10384 30942 ft 520 kts 180°
2026-05-07 16:23 35.98952 24.10897 31187 ft 522 kts 180°
2026-05-07 16:23 35.95352 24.11409 31416 ft 524 kts 180°
2026-05-07 16:23 35.91707 24.11927 31639 ft 526 kts 180°
2026-05-07 16:23 35.88066 24.12443 31861 ft 528 kts 180°
2026-05-07 16:24 35.84450 24.12955 32156 ft 528 kts 181°
2026-05-07 16:24 35.80803 24.13473 32480 ft 527 kts 181°
2026-05-07 16:24 35.77164 24.13989 32784 ft 527 kts 181°
2026-05-07 16:24 35.73522 24.14505 33071 ft 527 kts 181°
2026-05-07 16:25 35.69871 24.15020 33360 ft 527 kts 181°
2026-05-07 16:25 35.66228 24.15534 33621 ft 527 kts 181°
2026-05-07 16:25 35.62568 24.16047 33749 ft 530 kts 181°
2026-05-07 16:25 35.58908 24.16559 33973 ft 531 kts 181°
2026-05-07 16:26 35.55225 24.17077 34251 ft 530 kts 181°
2026-05-07 16:26 35.51571 24.17607 34497 ft 530 kts 180°
2026-05-07 16:26 35.47902 24.18222 34720 ft 532 kts 179°
2026-05-07 16:26 35.44242 24.18890 34926 ft 532 kts 179°
2026-05-07 16:27 35.40570 24.19583 35107 ft 533 kts 178°
2026-05-07 16:27 35.36893 24.20281 35303 ft 534 kts 178°
2026-05-07 16:27 35.33219 24.20974 35532 ft 533 kts 178°
2026-05-07 16:27 35.29551 24.21659 35782 ft 533 kts 179°
2026-05-07 16:28 35.25889 24.22336 36024 ft 532 kts 179°
2026-05-07 16:28 35.22287 24.22998 36250 ft 530 kts 179°
2026-05-07 16:28 35.18632 24.23665 36379 ft 531 kts 178°
2026-05-07 16:28 35.14982 24.24329 36506 ft 532 kts 178°
2026-05-07 16:29 35.11304 24.24997 36695 ft 532 kts 178°
2026-05-07 16:29 35.07652 24.25661 36889 ft 532 kts 178°
2026-05-07 16:29 35.03993 24.26326 37088 ft 531 kts 178°
2026-05-07 16:29 35.00336 24.26991 37265 ft 531 kts 178°
2026-05-07 16:30 34.96678 24.27656 37450 ft 531 kts 178°
2026-05-07 16:30 34.93019 24.28320 37614 ft 530 kts 178°
2026-05-07 16:30 34.89441 24.28968 37809 ft 530 kts 178°
2026-05-07 16:30 34.85797 24.29628 37980 ft 529 kts 178°
2026-05-07 16:31 34.82139 24.30290 38164 ft 529 kts 178°
2026-05-07 16:31 34.78503 24.30947 38314 ft 529 kts 178°
2026-05-07 16:31 34.74917 24.31595 38473 ft 528 kts 178°
2026-05-07 16:31 34.71272 24.32252 38631 ft 528 kts 178°
2026-05-07 16:32 34.67629 24.32909 38747 ft 528 kts 178°
2026-05-07 16:32 34.63984 24.33565 38868 ft 528 kts 178°
2026-05-07 16:32 34.60347 24.34219 39008 ft 528 kts 178°
2026-05-07 16:32 34.56723 24.34872 39121 ft 527 kts 178°
2026-05-07 16:33 34.53095 24.35523 39136 ft 527 kts 178°
2026-05-07 16:33 34.45828 24.36827 39126 ft 526 kts 178°
2026-05-07 16:34 34.38576 24.38125 39138 ft 527 kts 177°
2026-05-07 16:34 34.31331 24.39417 39139 ft 533 kts 177°
2026-05-07 16:35 34.23956 24.40730 39134 ft 538 kts 177°
2026-05-07 16:35 34.16498 24.42058 39129 ft 543 kts 177°
2026-05-07 16:36 34.08993 24.43393 39138 ft 548 kts 177°
2026-05-07 16:36 34.01431 24.44968 39136 ft 555 kts 167°
2026-05-07 16:37 33.94364 24.48643 39128 ft 553 kts 155°
2026-05-07 16:37 33.87690 24.52980 39141 ft 537 kts 153°
2026-05-07 16:38 33.81183 24.57360 39135 ft 536 kts 153°
2026-05-07 16:38 33.74646 24.61716 39135 ft 536 kts 153°
2026-05-07 16:39 33.68115 24.66021 39114 ft 536 kts 153°
2026-05-07 16:39 33.61568 24.70314 39143 ft 533 kts 154°
2026-05-07 16:40 33.55061 24.74573 39130 ft 532 kts 154°
2026-05-07 16:40 33.48595 24.78798 39147 ft 532 kts 154°
2026-05-07 16:41 33.42086 24.83045 39141 ft 532 kts 154°
2026-05-07 16:41 33.35568 24.87291 39136 ft 532 kts 154°
2026-05-07 16:42 33.29067 24.91519 39143 ft 532 kts 154°
2026-05-07 16:42 33.22597 24.95720 39145 ft 532 kts 154°
2026-05-07 16:43 33.16144 24.99902 39140 ft 532 kts 154°
2026-05-07 16:43 33.09617 25.04125 39139 ft 533 kts 154°
2026-05-07 16:44 33.03104 25.08333 39141 ft 531 kts 154°
2026-05-07 16:44 32.96616 25.12517 39140 ft 531 kts 154°
2026-05-07 16:45 32.90121 25.16698 39144 ft 531 kts 154°
2026-05-07 16:45 32.83658 25.20851 39130 ft 531 kts 154°
2026-05-07 16:46 32.77168 25.25015 39144 ft 529 kts 154°
2026-05-07 16:46 32.70695 25.29162 39143 ft 529 kts 154°
2026-05-07 16:47 32.64204 25.33313 39150 ft 529 kts 153°
2026-05-07 16:47 32.57711 25.37458 39144 ft 531 kts 154°
2026-05-07 16:48 32.51198 25.41608 39137 ft 531 kts 154°
2026-05-07 16:48 32.44733 25.45722 39145 ft 530 kts 154°
2026-05-07 16:49 32.38228 25.49855 39141 ft 530 kts 154°
2026-05-07 16:49 32.31724 25.53979 39141 ft 530 kts 154°
2026-05-07 16:50 32.25220 25.58098 39132 ft 530 kts 154°
2026-05-07 16:50 32.18704 25.62217 39141 ft 530 kts 154°
2026-05-07 16:51 32.12330 25.66239 39147 ft 530 kts 154°
2026-05-07 16:51 32.05804 25.70350 39142 ft 532 kts 154°
2026-05-07 16:52 31.99267 25.74463 39140 ft 532 kts 154°
2026-05-07 16:52 31.93848 25.77867 39139 ft 531 kts 154°
2026-05-07 16:53 31.87324 25.81960 39142 ft 530 kts 154°
2026-05-07 16:53 31.80808 25.86040 39144 ft 530 kts 154°
2026-05-07 16:54 31.74297 25.90110 39141 ft 530 kts 154°
2026-05-07 16:54 31.67766 25.94186 39132 ft 530 kts 154°
2026-05-07 16:55 31.61275 25.98231 39143 ft 533 kts 154°
2026-05-07 16:55 31.54905 26.02690 39144 ft 535 kts 148°
2026-05-07 16:56 31.48703 26.07537 39141 ft 535 kts 147°
2026-05-07 16:56 31.39465 26.14906 39131 ft 535 kts 146°
2026-05-07 16:57 31.33288 26.19817 39141 ft 536 kts 146°
2026-05-07 16:57 31.27101 26.24714 39136 ft 537 kts 146°
2026-05-07 16:58 31.20908 26.29604 39140 ft 537 kts 146°
2026-05-07 16:58 31.14716 26.34485 39136 ft 538 kts 146°
2026-05-07 16:59 31.08510 26.39370 39125 ft 537 kts 146°
2026-05-07 16:59 31.02350 26.44211 39131 ft 536 kts 146°
2026-05-07 17:00 30.96169 26.49062 39135 ft 536 kts 146°
2026-05-07 17:00 30.89974 26.53916 39129 ft 536 kts 146°
2026-05-07 17:01 30.83833 26.58719 39132 ft 536 kts 146°
2026-05-07 17:01 30.77625 26.63568 39110 ft 537 kts 146°
2026-05-07 17:02 30.71418 26.68408 39126 ft 537 kts 146°
2026-05-07 17:02 30.65214 26.73238 39124 ft 537 kts 146°
2026-05-07 17:03 30.58993 26.78074 39128 ft 537 kts 146°
2026-05-07 17:03 30.52820 26.82864 39124 ft 537 kts 146°
2026-05-07 17:04 30.46605 26.87681 39138 ft 537 kts 146°
2026-05-07 17:04 30.40384 26.92494 39121 ft 538 kts 146°
2026-05-07 17:05 30.34153 26.97307 39119 ft 539 kts 146°
2026-05-07 17:05 30.27920 27.02114 39117 ft 539 kts 146°
2026-05-07 17:06 30.21662 27.06933 39112 ft 538 kts 146°
2026-05-07 17:06 30.15488 27.11680 39097 ft 538 kts 146°
2026-05-07 17:07 30.09274 27.16450 39109 ft 537 kts 146°
2026-05-07 17:07 30.03035 27.21233 39102 ft 538 kts 146°
2026-05-07 17:08 29.96814 27.25995 39102 ft 538 kts 146°
2026-05-07 17:08 29.90556 27.30777 39097 ft 538 kts 146°
2026-05-07 17:09 29.84308 27.35544 39089 ft 538 kts 145°
2026-05-07 17:09 29.78109 27.40267 39091 ft 536 kts 145°
2026-05-07 17:10 29.71887 27.45000 39091 ft 536 kts 145°
2026-05-07 17:10 29.65651 27.49736 39088 ft 536 kts 145°
2026-05-07 17:11 29.59423 27.54460 39088 ft 536 kts 145°
2026-05-07 17:11 29.53190 27.59180 39077 ft 535 kts 145°
2026-05-07 17:12 29.46979 27.63876 39080 ft 534 kts 145°
2026-05-07 17:12 29.40831 27.68518 39080 ft 533 kts 145°
2026-05-07 17:13 29.34608 27.73210 39079 ft 533 kts 145°
2026-05-07 17:13 29.28403 27.77881 39074 ft 533 kts 146°
2026-05-07 17:14 29.22201 27.82543 39078 ft 532 kts 146°
2026-05-07 17:14 29.16035 27.87170 39071 ft 529 kts 146°
2026-05-07 17:15 29.09881 27.91783 39074 ft 529 kts 146°
2026-05-07 17:15 29.03699 27.96410 39073 ft 530 kts 146°
2026-05-07 17:16 28.97550 28.01006 39072 ft 530 kts 146°
2026-05-07 17:16 28.91354 28.05629 39068 ft 528 kts 146°
2026-05-07 17:17 28.85250 28.10179 39074 ft 526 kts 146°
2026-05-07 17:17 28.79152 28.14785 39073 ft 526 kts 145°
2026-05-07 17:18 28.73063 28.19418 39065 ft 526 kts 145°
2026-05-07 17:18 28.66977 28.24042 39068 ft 526 kts 145°
2026-05-07 17:19 28.60879 28.28661 39064 ft 525 kts 146°
2026-05-07 17:19 28.54797 28.33257 39061 ft 523 kts 146°
2026-05-07 17:20 28.48777 28.37800 39070 ft 523 kts 146°
2026-05-07 17:20 28.42709 28.42373 39068 ft 523 kts 146°
2026-05-07 17:21 28.36635 28.46944 39066 ft 523 kts 146°
2026-05-07 17:21 28.30575 28.51499 39056 ft 522 kts 146°
2026-05-07 17:22 28.24532 28.56034 39067 ft 520 kts 146°
2026-05-07 17:22 28.18526 28.60535 39064 ft 520 kts 146°
2026-05-07 17:23 28.12491 28.65052 39066 ft 520 kts 146°
2026-05-07 17:23 28.06454 28.69564 39068 ft 520 kts 146°
2026-05-07 17:24 28.00407 28.74077 39049 ft 520 kts 146°
2026-05-07 17:24 27.94374 28.78575 39071 ft 518 kts 147°
2026-05-07 17:25 27.88351 28.83058 39070 ft 517 kts 147°
2026-05-07 17:25 27.82432 28.87458 39070 ft 517 kts 147°
2026-05-07 17:26 27.76423 28.91918 39072 ft 517 kts 147°
2026-05-07 17:26 27.70402 28.96383 39083 ft 517 kts 147°
2026-05-07 17:27 27.64394 29.00831 39072 ft 516 kts 147°
2026-05-07 17:27 27.58391 29.05270 39073 ft 515 kts 147°
2026-05-07 17:28 27.52382 29.09707 39075 ft 515 kts 147°
2026-05-07 17:28 27.46415 29.14107 39078 ft 515 kts 147°
2026-05-07 17:29 27.40413 29.18527 39075 ft 515 kts 147°
2026-05-07 17:29 27.34408 29.22944 39075 ft 515 kts 147°
2026-05-07 17:30 27.28402 29.27356 39077 ft 516 kts 147°
2026-05-07 17:30 27.22384 29.31770 39076 ft 516 kts 147°
2026-05-07 17:31 27.16372 29.36174 39072 ft 516 kts 147°
2026-05-07 17:31 27.10348 29.40582 39079 ft 516 kts 147°
2026-05-07 17:32 27.04336 29.44975 39066 ft 516 kts 148°
2026-05-07 17:32 26.99330 29.48628 39078 ft 515 kts 148°
2026-05-07 17:33 26.92358 29.53710 39075 ft 514 kts 148°
2026-05-07 17:33 26.86357 29.58078 39075 ft 514 kts 148°
2026-05-07 17:34 26.80334 29.62456 39067 ft 514 kts 148°
2026-05-07 17:34 26.74327 29.66818 39049 ft 514 kts 148°
2026-05-07 17:35 26.68331 29.71166 39067 ft 513 kts 148°
2026-05-07 17:35 26.62370 29.75482 39067 ft 513 kts 148°
2026-05-07 17:36 26.56390 29.79829 39064 ft 513 kts 148°
2026-05-07 17:36 26.50415 29.84203 39066 ft 513 kts 148°
2026-05-07 17:37 26.44452 29.88567 39064 ft 514 kts 148°
2026-05-07 17:37 26.38471 29.92936 39059 ft 514 kts 148°
2026-05-07 17:38 26.32489 29.97297 39059 ft 513 kts 148°
2026-05-07 17:38 26.26517 30.01645 39053 ft 513 kts 148°
2026-05-07 17:39 26.21526 30.05239 39053 ft 513 kts 149°
2026-05-07 17:39 26.15499 30.09500 39051 ft 513 kts 149°
2026-05-07 17:40 26.09469 30.13744 39041 ft 513 kts 149°
2026-05-07 17:40 26.03458 30.17977 39045 ft 512 kts 149°
2026-05-07 17:41 25.97467 30.22198 39044 ft 512 kts 149°
2026-05-07 17:41 25.91445 30.26438 39039 ft 512 kts 149°
2026-05-07 17:42 25.85423 30.30671 39034 ft 512 kts 149°
2026-05-07 17:42 25.79180 30.34428 39006 ft 507 kts 163°
2026-05-07 17:43 25.72537 30.37008 39024 ft 505 kts 166°
2026-05-07 17:43 25.65838 30.39351 39012 ft 504 kts 167°
2026-05-07 17:44 25.59134 30.41658 38988 ft 505 kts 167°
2026-05-07 17:44 25.52464 30.43975 38973 ft 505 kts 167°
2026-05-07 17:45 25.45754 30.46326 38967 ft 504 kts 167°
2026-05-07 17:45 25.39096 30.48662 38955 ft 501 kts 167°
2026-05-07 17:46 25.32439 30.50982 38975 ft 501 kts 167°
2026-05-07 17:46 25.25778 30.53296 38967 ft 501 kts 167°
2026-05-07 17:47 25.19171 30.55587 38969 ft 500 kts 167°
2026-05-07 17:47 25.12539 30.57887 38978 ft 498 kts 167°
2026-05-07 17:48 25.05918 30.60181 38974 ft 498 kts 167°
2026-05-07 17:48 24.99308 30.62467 38975 ft 498 kts 167°
2026-05-07 17:49 24.92688 30.64754 38969 ft 498 kts 167°
2026-05-07 17:49 24.86072 30.67039 38970 ft 496 kts 167°
2026-05-07 17:50 24.79544 30.69290 38968 ft 495 kts 167°
2026-05-07 17:50 24.72968 30.71555 38967 ft 495 kts 167°
2026-05-07 17:51 24.66374 30.73823 38965 ft 495 kts 167°
2026-05-07 17:51 24.59827 30.76073 38958 ft 495 kts 167°
2026-05-07 17:52 24.53272 30.78324 38963 ft 493 kts 167°
2026-05-07 17:52 24.46714 30.80572 38966 ft 493 kts 167°
2026-05-07 17:53 24.40166 30.82814 38964 ft 493 kts 167°
2026-05-07 17:53 24.33625 30.85052 38960 ft 493 kts 167°
2026-05-07 17:54 24.27086 30.87287 38963 ft 493 kts 167°
2026-05-07 17:54 24.20528 30.89526 38960 ft 493 kts 167°
2026-05-07 17:55 24.14031 30.91742 38955 ft 493 kts 167°
2026-05-07 17:55 24.07476 30.93975 38954 ft 493 kts 167°
2026-05-07 17:56 24.00925 30.96204 38952 ft 492 kts 168°
2026-05-07 17:56 23.94409 30.98421 38955 ft 489 kts 168°
2026-05-07 17:57 23.89001 31.00258 38954 ft 489 kts 168°
2026-05-07 17:57 23.81400 31.02836 38955 ft 489 kts 168°
2026-05-07 17:58 23.74898 31.05039 38950 ft 489 kts 168°
2026-05-07 17:58 23.68429 31.07228 38949 ft 489 kts 168°
2026-05-07 17:59 23.61915 31.09431 38949 ft 489 kts 168°
2026-05-07 17:59 23.55412 31.11628 38953 ft 489 kts 168°
2026-05-07 18:00 23.48902 31.13824 38948 ft 489 kts 168°
2026-05-07 18:00 23.42392 31.16018 38940 ft 489 kts 168°
2026-05-07 18:01 23.35920 31.18199 38945 ft 489 kts 168°
2026-05-07 18:01 23.29412 31.20390 38945 ft 488 kts 168°
2026-05-07 18:02 23.19656 31.23668 38939 ft 489 kts 168°
2026-05-07 18:03 23.13161 31.25847 38916 ft 488 kts 168°
2026-05-07 18:03 23.06709 31.28009 38938 ft 488 kts 168°
2026-05-07 18:04 23.00208 31.30187 38937 ft 488 kts 168°
2026-05-07 18:04 22.93720 31.32358 38937 ft 488 kts 168°
2026-05-07 18:05 22.87224 31.34530 38936 ft 488 kts 168°
2026-05-07 18:05 22.80730 31.36699 38934 ft 489 kts 168°
2026-05-07 18:06 22.74215 31.38873 38937 ft 490 kts 168°
2026-05-07 18:06 22.67694 31.41048 38936 ft 490 kts 168°
2026-05-07 18:07 22.61175 31.43220 38930 ft 490 kts 168°
2026-05-07 18:07 22.54682 31.45381 38933 ft 490 kts 168°
2026-05-07 18:08 22.48156 31.47549 38936 ft 491 kts 167°
2026-05-07 18:08 22.41652 31.49709 38940 ft 491 kts 167°
2026-05-07 18:09 22.35111 31.51880 38938 ft 491 kts 167°
2026-05-07 18:09 22.28571 31.54048 38935 ft 490 kts 168°
2026-05-07 18:10 22.22056 31.56206 38926 ft 489 kts 167°
2026-05-07 18:10 22.15555 31.58357 38932 ft 488 kts 167°
2026-05-07 18:11 22.09064 31.60502 38932 ft 488 kts 167°
2026-05-07 18:11 22.02578 31.62643 38931 ft 488 kts 167°
2026-05-07 18:12 21.96047 31.64395 38931 ft 484 kts 172°
2026-05-07 18:12 21.89465 31.65927 38926 ft 481 kts 172°
2026-05-07 18:13 21.82954 31.67402 38929 ft 476 kts 173°
2026-05-07 18:13 21.76458 31.68870 38931 ft 476 kts 173°
2026-05-07 18:14 21.70009 31.70333 38927 ft 476 kts 172°
2026-05-07 18:14 21.63521 31.71808 38908 ft 476 kts 172°
2026-05-07 18:15 21.57063 31.73277 38927 ft 473 kts 172°
2026-05-07 18:15 21.50637 31.74737 38928 ft 472 kts 172°
2026-05-07 18:16 21.44213 31.76193 38930 ft 472 kts 172°
2026-05-07 18:16 21.37781 31.77650 38928 ft 472 kts 172°
2026-05-07 18:17 21.31383 31.79098 38928 ft 472 kts 172°
2026-05-07 18:17 21.24960 31.80551 38926 ft 471 kts 173°
2026-05-07 18:18 21.18549 31.82002 38927 ft 469 kts 173°
2026-05-07 18:18 21.12168 31.83442 38927 ft 469 kts 173°
2026-05-07 18:19 21.05754 31.84889 38903 ft 469 kts 173°
2026-05-07 18:19 20.99358 31.86330 38925 ft 468 kts 173°
2026-05-07 18:20 20.93025 31.87756 38923 ft 468 kts 173°
2026-05-07 18:20 20.86644 31.89192 38922 ft 468 kts 173°
2026-05-07 18:21 20.80269 31.90625 38919 ft 468 kts 173°
2026-05-07 18:21 20.73886 31.92059 38909 ft 468 kts 173°
2026-05-07 18:22 20.67517 31.93490 38924 ft 467 kts 173°
2026-05-07 18:22 20.61163 31.94914 38919 ft 467 kts 173°
2026-05-07 18:23 20.54801 31.96339 38913 ft 467 kts 173°
2026-05-07 18:23 20.48445 31.97762 38910 ft 467 kts 173°
2026-05-07 18:24 20.42133 31.99174 38906 ft 466 kts 173°
2026-05-07 18:24 20.35800 32.00590 38906 ft 465 kts 173°
2026-05-07 18:25 20.29454 32.02007 38906 ft 465 kts 173°
2026-05-07 18:25 20.23118 32.03420 38905 ft 464 kts 173°
2026-05-07 18:26 20.17862 32.04592 38895 ft 464 kts 173°
2026-05-07 18:26 20.10514 32.06230 38897 ft 462 kts 173°
2026-05-07 18:27 20.04232 32.07629 38894 ft 460 kts 174°
2026-05-07 18:27 19.99031 32.08785 38894 ft 458 kts 174°
2026-05-07 18:28 19.92796 32.10171 38886 ft 457 kts 174°
2026-05-07 18:28 19.86605 32.11545 38868 ft 457 kts 174°
2026-05-07 18:29 19.80391 32.12924 38886 ft 454 kts 174°
2026-05-07 18:29 19.74203 32.14296 38882 ft 453 kts 174°
2026-05-07 18:30 19.68028 32.15663 38880 ft 453 kts 174°
2026-05-07 18:30 19.61849 32.17030 38880 ft 453 kts 174°
2026-05-07 18:31 19.55715 32.18387 38859 ft 453 kts 174°
2026-05-07 18:31 19.49563 32.19748 38867 ft 450 kts 174°
2026-05-07 18:32 19.43428 32.21104 38867 ft 449 kts 175°
2026-05-07 18:32 19.37303 32.22454 38865 ft 449 kts 175°
2026-05-07 18:33 19.31228 32.23793 38865 ft 449 kts 175°
2026-05-07 18:33 19.25105 32.25142 38852 ft 448 kts 175°
2026-05-07 18:34 19.18999 32.26488 38860 ft 446 kts 175°
2026-05-07 18:34 19.12935 32.27822 38858 ft 445 kts 175°
2026-05-07 18:35 19.06906 32.29146 38861 ft 445 kts 175°
2026-05-07 18:35 19.00833 32.30479 38855 ft 445 kts 175°
2026-05-07 18:36 18.94762 32.31812 38852 ft 445 kts 175°
2026-05-07 18:36 18.88718 32.33139 38856 ft 443 kts 175°
2026-05-07 18:37 18.82664 32.34465 38862 ft 443 kts 175°
2026-05-07 18:37 18.76632 32.35786 38856 ft 442 kts 175°
2026-05-07 18:38 18.70633 32.37099 38860 ft 442 kts 175°
2026-05-07 18:38 18.64609 32.38416 38843 ft 442 kts 175°
2026-05-07 18:39 18.58574 32.39734 38859 ft 442 kts 175°
2026-05-07 18:39 18.52550 32.41050 38856 ft 442 kts 175°
2026-05-07 18:40 18.46527 32.42364 38859 ft 442 kts 175°
2026-05-07 18:40 18.40485 32.43682 38857 ft 442 kts 175°
2026-05-07 18:41 18.34495 32.44987 38859 ft 442 kts 175°
2026-05-07 18:41 18.28460 32.46301 38860 ft 442 kts 175°
2026-05-07 18:42 18.22438 32.47612 38857 ft 442 kts 175°
2026-05-07 18:42 18.16401 32.48924 38859 ft 442 kts 175°
2026-05-07 18:43 18.10376 32.50233 38861 ft 442 kts 175°
2026-05-07 18:43 18.04385 32.51534 38856 ft 442 kts 175°
2026-05-07 18:44 17.98359 32.52842 38858 ft 442 kts 175°
2026-05-07 18:44 17.92326 32.54150 38856 ft 442 kts 175°
2026-05-07 18:45 17.86287 32.55458 38853 ft 442 kts 175°
2026-05-07 18:45 17.80270 32.56761 38852 ft 442 kts 175°
2026-05-07 18:46 17.74238 32.58067 38840 ft 442 kts 175°
2026-05-07 18:46 17.68215 32.59369 38848 ft 442 kts 175°
2026-05-07 18:47 17.62238 32.60661 38845 ft 442 kts 175°
2026-05-07 18:47 17.56210 32.61963 38837 ft 442 kts 175°
2026-05-07 18:48 17.50196 32.63261 38844 ft 441 kts 175°
2026-05-07 18:48 17.44187 32.64557 38832 ft 440 kts 175°
2026-05-07 18:49 17.38175 32.65852 38845 ft 441 kts 175°
2026-05-07 18:49 17.32171 32.67144 38846 ft 441 kts 175°
2026-05-07 18:50 17.26149 32.68441 38846 ft 441 kts 175°
2026-05-07 18:50 17.20139 32.69732 38846 ft 441 kts 175°
2026-05-07 18:51 17.14170 32.71008 38830 ft 441 kts 174°
2026-05-07 18:51 17.08168 32.72290 38842 ft 442 kts 174°
2026-05-07 18:52 17.02138 32.73578 38839 ft 442 kts 174°
2026-05-07 18:52 16.96108 32.74866 38841 ft 442 kts 174°
2026-05-07 18:53 16.90073 32.76154 38845 ft 442 kts 174°
2026-05-07 18:53 16.84039 32.77441 38818 ft 442 kts 174°
2026-05-07 18:54 16.77996 32.78728 38840 ft 443 kts 174°
2026-05-07 18:54 16.71947 32.80016 38839 ft 443 kts 174°
2026-05-07 18:55 16.65931 32.81297 38838 ft 443 kts 174°
2026-05-07 18:55 16.59882 32.82584 38838 ft 443 kts 174°
2026-05-07 18:56 16.53838 32.83867 38832 ft 443 kts 175°
2026-05-07 18:56 16.47754 32.84942 38829 ft 442 kts 177°
2026-05-07 18:57 16.41686 32.85860 38829 ft 441 kts 177°
2026-05-07 18:57 16.35594 32.86777 38828 ft 441 kts 177°
2026-05-07 18:58 16.29548 32.87710 38832 ft 442 kts 177°
2026-05-07 18:58 16.23470 32.88660 38832 ft 442 kts 177°
2026-05-07 18:59 16.17391 32.89611 38830 ft 442 kts 177°
2026-05-07 18:59 16.11302 32.90562 38830 ft 442 kts 177°
2026-05-07 19:00 16.05205 32.91514 38830 ft 442 kts 177°
2026-05-07 19:00 15.99119 32.92463 38832 ft 442 kts 177°
2026-05-07 19:01 15.93035 32.93411 38829 ft 442 kts 177°
2026-05-07 19:01 15.86990 32.94352 38827 ft 443 kts 177°
2026-05-07 19:02 15.80891 32.95301 38822 ft 444 kts 177°
2026-05-07 19:02 15.74773 32.96253 38824 ft 444 kts 177°
2026-05-07 19:03 15.68653 32.97205 38818 ft 444 kts 177°
2026-05-07 19:03 15.62541 32.98155 38818 ft 444 kts 177°
2026-05-07 19:04 15.56428 32.99103 38815 ft 445 kts 177°
2026-05-07 19:04 15.50283 33.00056 38815 ft 446 kts 177°
2026-05-07 19:05 15.44193 33.01001 38818 ft 446 kts 177°
2026-05-07 19:05 15.38040 33.01955 38821 ft 446 kts 177°
2026-05-07 19:06 15.31907 33.02906 38812 ft 446 kts 177°
2026-05-07 19:06 15.22725 33.04327 38809 ft 446 kts 177°
2026-05-07 19:07 15.16582 33.05277 38807 ft 446 kts 177°
2026-05-07 19:07 15.10445 33.06225 38806 ft 446 kts 177°
2026-05-07 19:08 15.05300 33.07020 38808 ft 446 kts 177°
2026-05-07 19:08 15.00666 33.07736 38792 ft 446 kts 176°
2026-05-07 19:09 14.94482 33.08690 38801 ft 448 kts 176°
2026-05-07 19:09 14.88350 33.09635 38801 ft 448 kts 176°
2026-05-07 19:10 14.82187 33.10586 38801 ft 448 kts 176°
2026-05-07 19:10 14.76037 33.11534 38801 ft 448 kts 176°
2026-05-07 19:11 14.69858 33.12486 38784 ft 448 kts 176°
2026-05-07 19:11 14.63671 33.13437 38795 ft 450 kts 176°
2026-05-07 19:12 14.57481 33.14389 38798 ft 450 kts 176°
2026-05-07 19:12 14.51289 33.15342 38796 ft 450 kts 176°
2026-05-07 19:13 14.45120 33.16288 38795 ft 449 kts 176°
2026-05-07 19:13 14.38940 33.17238 38783 ft 449 kts 176°
2026-05-07 19:14 14.32746 33.18192 38796 ft 450 kts 176°
2026-05-07 19:14 14.26549 33.19145 38793 ft 450 kts 176°
2026-05-07 19:15 14.20382 33.20092 38793 ft 450 kts 176°
2026-05-07 19:15 14.14189 33.21042 38794 ft 450 kts 176°
2026-05-07 19:16 14.09035 33.21833 38790 ft 450 kts 176°
2026-05-07 19:16 14.02834 33.22783 38790 ft 450 kts 175°
2026-05-07 19:17 13.96635 33.23732 38791 ft 451 kts 175°
2026-05-07 19:17 13.90424 33.24683 38791 ft 451 kts 175°
2026-05-07 19:18 13.84230 33.25631 38796 ft 451 kts 176°
2026-05-07 19:18 13.78018 33.26581 38795 ft 451 kts 176°
2026-05-07 19:19 13.71803 33.27531 38799 ft 451 kts 175°
2026-05-07 19:19 13.65639 33.28472 38804 ft 451 kts 175°
2026-05-07 19:20 13.59438 33.29419 38804 ft 451 kts 175°
2026-05-07 19:20 13.53208 33.30370 38807 ft 451 kts 175°
2026-05-07 19:21 13.46996 33.31318 38796 ft 451 kts 175°
2026-05-07 19:21 13.40770 33.32267 38809 ft 451 kts 175°
2026-05-07 19:22 13.34557 33.33213 38810 ft 452 kts 175°
2026-05-07 19:22 13.28331 33.34162 38810 ft 452 kts 175°
2026-05-07 19:23 13.22147 33.35103 38809 ft 452 kts 175°
2026-05-07 19:23 13.15929 33.36049 38806 ft 451 kts 175°
2026-05-07 19:24 13.09709 33.36995 38813 ft 451 kts 175°
2026-05-07 19:24 13.03512 33.37937 38815 ft 451 kts 175°
2026-05-07 19:25 12.97285 33.38883 38818 ft 451 kts 175°
2026-05-07 19:25 12.91103 33.39821 38818 ft 451 kts 175°
2026-05-07 19:26 12.84895 33.40763 38813 ft 451 kts 175°
2026-05-07 19:26 12.78697 33.41703 38818 ft 449 kts 175°
2026-05-07 19:27 12.72517 33.42640 38817 ft 449 kts 175°
2026-05-07 19:27 12.66338 33.43576 38821 ft 449 kts 175°
2026-05-07 19:28 12.60157 33.44512 38824 ft 449 kts 175°
2026-05-07 19:28 12.55016 33.45290 38822 ft 449 kts 175°
2026-05-07 19:29 12.51341 33.45846 38858 ft 447 kts 175°
2026-05-07 19:29 12.45200 33.46776 38823 ft 446 kts 175°
2026-05-07 19:30 12.39040 33.47707 38822 ft 447 kts 175°
2026-05-07 19:30 12.32895 33.48635 38835 ft 447 kts 175°
2026-05-07 19:31 12.26752 33.49563 38836 ft 447 kts 175°
2026-05-07 19:31 12.20599 33.50492 38839 ft 447 kts 175°
2026-05-07 19:32 12.14465 33.51418 38827 ft 447 kts 175°
2026-05-07 19:32 12.08304 33.52347 38843 ft 447 kts 175°
2026-05-07 19:33 12.02139 33.53276 38845 ft 447 kts 175°
2026-05-07 19:33 11.95988 33.54203 38832 ft 447 kts 175°
2026-05-07 19:34 11.89838 33.55130 38845 ft 447 kts 174°
2026-05-07 19:34 11.83718 33.56051 38848 ft 447 kts 174°
2026-05-07 19:35 11.77552 33.56979 38841 ft 447 kts 174°
2026-05-07 19:35 11.71389 33.57906 38849 ft 447 kts 174°
2026-05-07 19:36 11.65216 33.58834 38861 ft 447 kts 174°
2026-05-07 19:36 11.59057 33.59760 38847 ft 447 kts 175°
2026-05-07 19:37 11.52884 33.60687 38864 ft 449 kts 175°
2026-05-07 19:37 11.46708 33.61614 38864 ft 449 kts 175°
2026-05-07 19:38 11.40568 33.62536 38870 ft 449 kts 175°
2026-05-07 19:38 11.34382 33.63464 38856 ft 449 kts 175°
2026-05-07 19:39 11.28204 33.64391 38863 ft 449 kts 174°
2026-05-07 19:39 11.22006 33.65319 38869 ft 451 kts 174°
2026-05-07 19:40 11.15792 33.66250 38869 ft 451 kts 174°
2026-05-07 19:40 11.09612 33.67176 38858 ft 451 kts 174°
2026-05-07 19:41 11.03396 33.68107 38875 ft 451 kts 174°
2026-05-07 19:41 10.97224 33.69031 38871 ft 452 kts 174°
2026-05-07 19:42 10.90972 33.69965 38880 ft 455 kts 174°
2026-05-07 19:42 10.84696 33.70903 38876 ft 456 kts 174°
2026-05-07 19:43 10.78415 33.71841 38878 ft 456 kts 174°
2026-05-07 19:43 10.72137 33.72777 38878 ft 456 kts 174°
2026-05-07 19:44 10.65894 33.73708 38868 ft 456 kts 174°
2026-05-07 19:44 10.59591 33.74647 38871 ft 458 kts 174°
2026-05-07 19:45 10.53271 33.75589 38874 ft 458 kts 174°
2026-05-07 19:45 10.47026 33.76521 38874 ft 454 kts 174°
2026-05-07 19:46 10.40778 33.77452 38873 ft 453 kts 174°
2026-05-07 19:46 10.34545 33.78380 38867 ft 453 kts 174°
2026-05-07 19:47 10.28292 33.79310 38874 ft 452 kts 174°
2026-05-07 19:47 10.22072 33.80236 38880 ft 452 kts 174°
2026-05-07 19:48 10.15850 33.81161 38874 ft 452 kts 174°
2026-05-07 19:48 10.09611 33.82089 38875 ft 452 kts 174°
2026-05-07 19:49 10.03424 33.83009 38876 ft 452 kts 174°
2026-05-07 19:49 9.97179 33.83936 38876 ft 453 kts 174°
2026-05-07 19:50 9.90944 33.84862 38876 ft 453 kts 174°
2026-05-07 19:50 9.84700 33.85790 38879 ft 453 kts 174°
2026-05-07 19:51 9.78459 33.86716 38885 ft 453 kts 174°
2026-05-07 19:51 9.72251 33.87637 38886 ft 453 kts 174°
2026-05-07 19:52 9.66005 33.88563 38880 ft 454 kts 174°
2026-05-07 19:52 9.59762 33.89489 38885 ft 454 kts 174°
2026-05-07 19:53 9.53506 33.90416 38902 ft 454 kts 174°
2026-05-07 19:53 9.47250 33.91343 38899 ft 454 kts 174°
2026-05-07 19:54 9.41038 33.92263 38895 ft 454 kts 174°
2026-05-07 19:54 9.34779 33.93222 38899 ft 456 kts 170°
2026-05-07 19:55 9.28616 33.94761 38897 ft 457 kts 167°
2026-05-07 19:55 9.22471 33.96450 38898 ft 458 kts 167°
2026-05-07 19:56 9.16312 33.98175 38895 ft 458 kts 167°
2026-05-07 19:56 9.10200 33.99881 38895 ft 458 kts 167°
2026-05-07 19:57 9.04056 34.01587 38901 ft 458 kts 167°
2026-05-07 19:57 8.97889 34.03295 38899 ft 458 kts 167°
2026-05-07 19:58 8.91745 34.04996 38901 ft 458 kts 167°
2026-05-07 19:58 8.85588 34.06701 38897 ft 458 kts 167°
2026-05-07 19:59 8.79477 34.08392 38898 ft 458 kts 167°
2026-05-07 19:59 8.73324 34.10094 38893 ft 458 kts 166°
2026-05-07 20:00 8.67170 34.11796 38905 ft 458 kts 166°
2026-05-07 20:00 8.61014 34.13498 38901 ft 458 kts 166°
2026-05-07 20:01 8.54890 34.15191 38898 ft 458 kts 166°
2026-05-07 20:01 8.48737 34.16891 38892 ft 458 kts 166°
2026-05-07 20:02 8.42579 34.18591 38892 ft 459 kts 166°
2026-05-07 20:02 8.36416 34.20293 38892 ft 459 kts 166°
2026-05-07 20:03 8.31281 34.21710 38890 ft 459 kts 166°
2026-05-07 20:03 8.24111 34.23689 38891 ft 460 kts 166°
2026-05-07 20:04 8.17941 34.25391 38895 ft 460 kts 166°
2026-05-07 20:04 8.12805 34.26807 38892 ft 460 kts 166°
2026-05-07 20:05 8.06584 34.28521 38890 ft 461 kts 166°
2026-05-07 20:05 8.00429 34.30206 38888 ft 461 kts 166°
2026-05-07 20:06 7.94238 34.31896 38889 ft 461 kts 166°
2026-05-07 20:06 7.88036 34.33589 38892 ft 461 kts 166°
2026-05-07 20:07 7.81876 34.35270 38895 ft 461 kts 166°
2026-05-07 20:07 7.75687 34.36960 38895 ft 461 kts 166°
2026-05-07 20:08 7.69488 34.38652 38895 ft 460 kts 166°
2026-05-07 20:08 7.63335 34.40331 38898 ft 460 kts 166°
2026-05-07 20:09 7.57137 34.42021 38895 ft 460 kts 166°
2026-05-07 20:10 7.47854 34.44552 38901 ft 460 kts 166°
2026-05-07 20:10 7.41715 34.46225 38903 ft 459 kts 166°
2026-05-07 20:11 7.35544 34.47907 38903 ft 459 kts 166°
2026-05-07 20:11 7.29382 34.49585 38900 ft 459 kts 166°
2026-05-07 20:12 7.23202 34.51269 38902 ft 459 kts 166°
2026-05-07 20:12 7.17026 34.52951 38909 ft 459 kts 165°
2026-05-07 20:13 7.10850 34.54632 38909 ft 459 kts 165°
2026-05-07 20:13 7.04715 34.56302 38908 ft 459 kts 165°
2026-05-07 20:14 6.98541 34.57982 38913 ft 459 kts 166°
2026-05-07 20:14 6.92369 34.59661 38913 ft 459 kts 166°
2026-05-07 20:15 6.86192 34.61340 38910 ft 459 kts 165°
2026-05-07 20:15 6.80040 34.63013 38913 ft 460 kts 165°
2026-05-07 20:16 6.73862 34.64692 38928 ft 460 kts 165°
2026-05-07 20:16 6.67684 34.66371 38925 ft 460 kts 166°
2026-05-07 20:17 6.61488 34.68022 38927 ft 460 kts 166°
2026-05-07 20:17 6.55300 34.69648 38928 ft 460 kts 166°
2026-05-07 20:18 6.49105 34.71275 38930 ft 461 kts 166°
2026-05-07 20:18 6.42894 34.72909 38933 ft 461 kts 166°
2026-05-07 20:19 6.36685 34.74544 38953 ft 461 kts 166°
2026-05-07 20:19 6.30515 34.76169 38948 ft 462 kts 166°
2026-05-07 20:20 6.24302 34.77805 38955 ft 462 kts 166°
2026-05-07 20:20 6.18082 34.79442 38952 ft 461 kts 166°
2026-05-07 20:21 6.11876 34.81074 38955 ft 461 kts 166°
2026-05-07 20:21 6.05660 34.82710 38955 ft 461 kts 166°
2026-05-07 20:22 5.99457 34.84341 38965 ft 461 kts 166°
2026-05-07 20:22 5.93255 34.85972 38967 ft 461 kts 166°
2026-05-07 20:23 5.87087 34.87593 38966 ft 461 kts 166°
2026-05-07 20:23 5.80872 34.89227 38961 ft 461 kts 166°
2026-05-07 20:24 5.74669 34.90856 38962 ft 461 kts 166°
2026-05-07 20:24 5.68461 34.92487 38951 ft 461 kts 166°
2026-05-07 20:25 5.62250 34.94119 38961 ft 461 kts 166°
2026-05-07 20:25 5.56037 34.95750 38948 ft 461 kts 166°
2026-05-07 20:26 5.49873 34.97368 38951 ft 461 kts 166°
2026-05-07 20:26 5.43664 34.98998 38929 ft 461 kts 166°
2026-05-07 20:27 5.37453 35.00628 38934 ft 461 kts 166°
2026-05-07 20:27 5.31255 35.02255 38918 ft 461 kts 166°
2026-05-07 20:28 5.25057 35.03926 38916 ft 460 kts 165°
2026-05-07 20:28 5.18883 35.05617 38904 ft 460 kts 165°
2026-05-07 20:29 5.12711 35.07306 38904 ft 460 kts 165°
2026-05-07 20:29 5.06569 35.08983 38894 ft 460 kts 165°
2026-05-07 20:30 5.00384 35.10668 38893 ft 460 kts 165°
2026-05-07 20:30 4.94210 35.12351 38894 ft 459 kts 166°
2026-05-07 20:31 4.88033 35.14034 38893 ft 459 kts 166°
2026-05-07 20:31 4.81863 35.15714 38896 ft 459 kts 166°
2026-05-07 20:32 4.75691 35.17396 38895 ft 459 kts 165°
2026-05-07 20:32 4.69558 35.19066 38895 ft 459 kts 165°
2026-05-07 20:33 4.63386 35.20746 38895 ft 460 kts 166°
2026-05-07 20:33 4.57195 35.22431 38894 ft 461 kts 166°
2026-05-07 20:34 4.51002 35.24117 38893 ft 461 kts 166°
2026-05-07 20:34 4.44802 35.25804 38895 ft 461 kts 165°
2026-05-07 20:35 4.38597 35.27492 38897 ft 462 kts 165°
2026-05-07 20:35 4.32435 35.29168 38892 ft 462 kts 166°
2026-05-07 20:36 4.26230 35.30856 38895 ft 462 kts 166°
2026-05-07 20:36 4.20020 35.32544 38895 ft 462 kts 166°
2026-05-07 20:37 4.13811 35.34233 38895 ft 462 kts 166°
2026-05-07 20:37 4.07601 35.35921 38903 ft 462 kts 166°
2026-05-07 20:38 4.01461 35.37590 38898 ft 462 kts 166°
2026-05-07 20:38 3.95255 35.39241 38900 ft 461 kts 166°
2026-05-07 20:39 3.89075 35.40849 38900 ft 461 kts 166°
2026-05-07 20:39 3.82856 35.42464 38898 ft 461 kts 166°
2026-05-07 20:40 3.76646 35.44081 38899 ft 461 kts 166°
2026-05-07 20:40 3.70433 35.45701 38893 ft 461 kts 166°
2026-05-07 20:41 3.64211 35.47325 38894 ft 462 kts 166°
2026-05-07 20:41 3.57990 35.48948 38895 ft 462 kts 166°
2026-05-07 20:42 3.51809 35.50560 38894 ft 462 kts 166°
2026-05-07 20:42 3.45664 35.52162 38891 ft 462 kts 166°
2026-05-07 20:43 3.39417 35.53790 38889 ft 463 kts 166°
2026-05-07 20:43 3.33176 35.55417 38892 ft 463 kts 166°
2026-05-07 20:44 3.26932 35.57044 38896 ft 463 kts 166°
2026-05-07 20:44 3.20688 35.58672 38893 ft 463 kts 166°
2026-05-07 20:45 3.14486 35.60288 38894 ft 463 kts 166°
2026-05-07 20:45 3.08185 35.61638 38897 ft 462 kts 172°
2026-05-07 20:46 3.01818 35.62690 38898 ft 462 kts 171°
2026-05-07 20:46 2.95460 35.63717 38898 ft 462 kts 172°
2026-05-07 20:47 2.89141 35.64732 38898 ft 462 kts 171°
2026-05-07 20:47 2.82774 35.65753 38898 ft 462 kts 172°
2026-05-07 20:48 2.76416 35.66773 38894 ft 462 kts 172°
2026-05-07 20:48 2.70067 35.67791 38903 ft 462 kts 172°
2026-05-07 20:49 2.63702 35.68811 38900 ft 462 kts 172°
2026-05-07 20:49 2.57357 35.69828 38904 ft 462 kts 172°
2026-05-07 20:50 2.51038 35.70841 38906 ft 462 kts 172°
2026-05-07 20:50 2.44687 35.71859 38904 ft 462 kts 172°
2026-05-07 20:51 2.38330 35.72878 38907 ft 462 kts 172°
2026-05-07 20:51 2.31987 35.73894 38915 ft 462 kts 172°
2026-05-07 20:52 2.25628 35.74913 38914 ft 462 kts 172°
2026-05-07 20:52 2.19313 35.75924 38915 ft 462 kts 172°
2026-05-07 20:53 2.13994 35.76777 38919 ft 462 kts 172°
2026-05-07 20:53 2.07664 35.77790 38931 ft 463 kts 172°
2026-05-07 20:54 2.01304 35.78809 38932 ft 463 kts 172°
2026-05-07 20:54 1.94939 35.79828 38939 ft 463 kts 172°
2026-05-07 20:55 1.88578 35.80847 38941 ft 463 kts 172°
2026-05-07 20:55 1.82206 35.81867 38950 ft 463 kts 172°
2026-05-07 20:56 1.75849 35.82886 38946 ft 463 kts 172°
2026-05-07 20:56 1.69484 35.83905 38962 ft 462 kts 172°
2026-05-07 20:57 1.63163 35.84917 38959 ft 462 kts 172°
2026-05-07 20:57 1.56827 35.86009 38956 ft 463 kts 171°
2026-05-07 20:58 1.50485 35.87129 38962 ft 463 kts 171°
2026-05-07 20:58 1.44121 35.88251 38971 ft 463 kts 171°
2026-05-07 20:59 1.37779 35.89368 38969 ft 463 kts 171°
2026-05-07 20:59 1.31409 35.90490 38979 ft 463 kts 171°
2026-05-07 21:00 1.25056 35.91608 38981 ft 463 kts 171°
2026-05-07 21:00 1.18748 35.92718 38989 ft 463 kts 171°
2026-05-07 21:01 1.12397 35.93837 38989 ft 462 kts 171°
2026-05-07 21:01 1.06062 35.94952 38997 ft 462 kts 171°
2026-05-07 21:02 0.99729 35.96067 38987 ft 462 kts 171°
2026-05-07 21:02 0.93387 35.97183 38997 ft 462 kts 171°
2026-05-07 21:03 0.87039 35.98300 38997 ft 462 kts 171°
2026-05-07 21:03 0.80745 35.99408 39012 ft 462 kts 171°
2026-05-07 21:04 0.74421 36.00521 39013 ft 462 kts 171°
2026-05-07 21:04 0.68090 36.01636 39026 ft 462 kts 171°
2026-05-07 21:05 0.61741 36.02753 39044 ft 462 kts 171°
2026-05-07 21:05 0.55417 36.03867 39043 ft 462 kts 171°
2026-05-07 21:06 0.49080 36.04982 39057 ft 462 kts 170°
2026-05-07 21:06 0.42741 36.06098 39067 ft 462 kts 171°
2026-05-07 21:07 0.36445 36.07205 39084 ft 462 kts 171°
2026-05-07 21:07 0.30108 36.08320 39083 ft 462 kts 171°
2026-05-07 21:08 0.23749 36.09439 39104 ft 465 kts 171°
2026-05-07 21:08 0.17364 36.10563 38873 ft 466 kts 171°
2026-05-07 21:08 0.14172 36.11125 38628 ft 466 kts 171°
2026-05-07 21:09 0.11016 36.11680 38387 ft 466 kts 170°
2026-05-07 21:09 0.07820 36.12242 38089 ft 465 kts 170°
2026-05-07 21:09 0.04640 36.12802 37611 ft 464 kts 170°
2026-05-07 21:09 0.01457 36.13362 37044 ft 465 kts 170°
2026-05-07 21:10 -0.01734 36.13924 36473 ft 466 kts 170°
2026-05-07 21:10 -0.04935 36.14487 35882 ft 468 kts 170°
2026-05-07 21:10 -0.08152 36.15053 35246 ft 470 kts 170°
2026-05-07 21:10 -0.11380 36.15621 34585 ft 473 kts 170°
2026-05-07 21:11 -0.14603 36.16188 33884 ft 476 kts 170°
2026-05-07 21:11 -0.17875 36.16764 33134 ft 479 kts 170°
2026-05-07 21:11 -0.24453 36.17921 31695 ft 482 kts 169°
2026-05-07 21:12 -0.27751 36.18502 31208 ft 479 kts 169°
2026-05-07 21:12 -0.31022 36.19077 30729 ft 475 kts 169°
2026-05-07 21:12 -0.34273 36.19649 30203 ft 472 kts 169°
2026-05-07 21:12 -0.37494 36.20216 29653 ft 469 kts 169°
2026-05-07 21:13 -0.40694 36.20779 29135 ft 465 kts 169°
2026-05-07 21:13 -0.43862 36.21337 28624 ft 461 kts 169°
2026-05-07 21:13 -0.47009 36.21891 28110 ft 457 kts 169°
2026-05-07 21:13 -0.50130 36.22440 27607 ft 453 kts 169°
2026-05-07 21:14 -0.53230 36.22986 27109 ft 450 kts 169°
2026-05-07 21:14 -0.56259 36.23519 26613 ft 446 kts 169°
2026-05-07 21:14 -0.59315 36.24057 26103 ft 444 kts 170°
2026-05-07 21:14 -0.62344 36.24590 25608 ft 441 kts 169°
2026-05-07 21:15 -0.65354 36.25119 25108 ft 438 kts 170°
2026-05-07 21:15 -0.68354 36.25647 24610 ft 435 kts 169°
2026-05-07 21:15 -0.71332 36.26172 24106 ft 433 kts 169°
2026-05-07 21:15 -0.74289 36.26692 23574 ft 431 kts 169°
2026-05-07 21:16 -0.77231 36.27210 23050 ft 427 kts 169°
2026-05-07 21:16 -0.80141 36.27722 22564 ft 422 kts 169°
2026-05-07 21:16 -0.83015 36.28227 22080 ft 416 kts 169°
2026-05-07 21:16 -0.85821 36.28721 21606 ft 402 kts 169°
2026-05-07 21:17 -0.88527 36.29197 21162 ft 389 kts 169°
2026-05-07 21:17 -0.91151 36.29659 20712 ft 377 kts 169°
2026-05-07 21:17 -0.93717 36.30110 20282 ft 374 kts 169°
2026-05-07 21:17 -0.96289 36.30563 19839 ft 373 kts 169°
2026-05-07 21:18 -0.98810 36.31007 19394 ft 372 kts 169°
2026-05-07 21:18 -1.01352 36.31455 18976 ft 371 kts 169°
2026-05-07 21:18 -1.03888 36.31902 18534 ft 370 kts 169°
2026-05-07 21:18 -1.06422 36.32348 18046 ft 368 kts 169°
2026-05-07 21:19 -1.08910 36.32785 17622 ft 357 kts 169°
2026-05-07 21:19 -1.11346 36.33214 17199 ft 355 kts 169°
2026-05-07 21:19 -1.13787 36.33644 16769 ft 357 kts 169°
2026-05-07 21:19 -1.16235 36.34075 16341 ft 357 kts 169°
2026-05-07 21:20 -1.18676 36.34505 15919 ft 355 kts 169°
2026-05-07 21:20 -1.21107 36.34933 15469 ft 354 kts 169°
2026-05-07 21:20 -1.23531 36.35360 15037 ft 353 kts 169°
2026-05-07 21:20 -1.25949 36.35786 14610 ft 352 kts 169°
2026-05-07 21:21 -1.28365 36.36211 14190 ft 351 kts 169°
2026-05-07 21:21 -1.30715 36.36730 13742 ft 349 kts 161°
2026-05-07 21:21 -1.32865 36.37829 13094 ft 347 kts 141°
2026-05-07 21:21 -1.34438 36.39576 12594 ft 332 kts 121°
2026-05-07 21:22 -1.35284 36.41666 12173 ft 321 kts 102°
2026-05-07 21:22 -1.35569 36.43884 11763 ft 325 kts 95°
2026-05-07 21:22 -1.35708 36.46135 11385 ft 325 kts 93°
2026-05-07 21:22 -1.35830 36.48396 10993 ft 323 kts 93°
2026-05-07 21:23 -1.35957 36.50626 10698 ft 317 kts 94°
2026-05-07 21:23 -1.36084 36.52778 10613 ft 300 kts 94°
2026-05-07 21:23 -1.36205 36.54767 10501 ft 283 kts 94°
2026-05-07 21:23 -1.36324 36.56688 10389 ft 270 kts 94°
2026-05-07 21:24 -1.36442 36.58565 10265 ft 273 kts 94°
2026-05-07 21:24 -1.36563 36.60469 9989 ft 273 kts 94°
2026-05-07 21:24 -1.36682 36.62352 9683 ft 270 kts 94°
2026-05-07 21:24 -1.36800 36.64210 9215 ft 265 kts 94°
2026-05-07 21:25 -1.36916 36.66044 8801 ft 265 kts 94°
2026-05-07 21:25 -1.37033 36.67882 8492 ft 263 kts 94°
2026-05-07 21:25 -1.37148 36.69700 8198 ft 261 kts 94°
2026-05-07 21:25 -1.37262 36.71495 7972 ft 265 kts 94°
2026-05-07 21:26 -1.37380 36.73345 7935 ft 268 kts 93°
2026-05-07 21:26 -1.37498 36.75218 7924 ft 274 kts 92°
2026-05-07 21:26 -1.37620 36.77134 7932 ft 274 kts 93°
2026-05-07 21:26 -1.37736 36.78945 7954 ft 247 kts 93°
2026-05-07 21:27 -1.37839 36.80557 7974 ft 219 kts 92°
2026-05-07 21:27 -1.37932 36.82000 7874 ft 199 kts 92°
2026-05-07 21:27 -1.37995 36.83382 7284 ft 206 kts 87°
2026-05-07 21:27 -1.37689 36.84820 6571 ft 218 kts 66°
2026-05-07 21:28 -1.36858 36.86079 6076 ft 213 kts 51°
2026-05-07 21:28 -1.35975 36.87185 5972 ft 192 kts 53°
2026-05-07 21:28 -1.35297 36.88201 5912 ft 170 kts 54°
2026-05-07 21:28 -1.34654 36.89071 5797 ft 150 kts 52°
2026-05-07 21:29 -1.34048 36.89883 5723 ft 146 kts 52°
2026-05-07 21:29 -1.33442 36.90694 5564 ft 145 kts 53°
2026-05-07 21:29 -1.32864 36.91499 5410 ft 145 kts 52°
2026-05-07 21:29 -1.32278 36.92294 5316 ft 132 kts 54°
2026-05-07 21:30 -1.31880 36.92839 5311 ft 57 kts 53°
2026-05-07 21:30 -1.31791 36.92961 5307 ft 17 kts 54°
2026-05-07 21:30 -1.31605 36.93216 5302 ft 62 kts 54°
2026-05-07 21:30 -1.31611 36.93365 5303 ft 17 kts 143°
2026-05-07 21:31 -1.31796 36.93473 5308 ft 29 kts 174°
2026-05-07 21:31 -1.31867 36.93417 5308 ft 12 kts 233°
2026-05-07 21:31 -1.31932 36.93327 5308 ft 20 kts 233°
2026-05-07 21:31 -1.32037 36.93186 5310 ft 31 kts 234°
2026-05-07 21:32 -1.32180 36.92984 5315 ft 40 kts 233°
2026-05-07 21:32 -1.32336 36.92774 5322 ft 23 kts 228°
2026-05-07 21:32 -1.32430 36.92768 5319 ft 15 kts 157°
2026-05-07 21:32 -1.32533 36.92834 5321 ft 21 kts 144°
2026-05-07 21:33 -1.32661 36.92927 5320 ft 24 kts 144°
2026-05-07 21:33 -1.32803 36.92911 5320 ft 25 kts 230°
2026-05-07 21:33 -1.32889 36.92766 5326 ft 14 kts 272°
2026-05-07 21:33 -1.32851 36.92710 5317 ft 12 kts 310°
2026-05-07 21:34 -1.32793 36.92620 5319 ft 11 kts 295°
2026-05-07 21:34 -1.32765 36.92526 5318 ft 20 kts 277°
2026-05-07 21:34 -1.32806 36.92354 5323 ft 22 kts 239°
2026-05-07 21:34 -1.32896 36.92261 5318 ft 20 kts 213°
2026-05-07 21:35 -1.33045 36.92219 5320 ft 11 kts 176°
2026-05-07 21:35 -1.33086 36.92193 5320 ft 8 kts 243°
2026-05-07 21:35 -1.33090 36.92170 5323 ft 5 kts 262°
2026-05-07 21:35 -1.33090 36.92145 5324 ft 0 kts 271°